Time,TemperatureF,DewpointF,PressureIn,WindDirection,WindDirectionDegrees,WindSpeedMPH,WindSpeedGustMPH,Humidity,HourlyPrecipIn,Conditions,Clouds,dailyrainin,SolarRadiationWatts/m^2,SoftwareType,DateUTC
2013-05-13 00:02:00,40.3,34.0,30.12,NE,54,1.1,1.1,78,0.00,CLR,,0.00,0.0,WeatherDisplay:10.37,2013-05-13 05:02:00,
2013-05-13 00:07:00,40.2,34.2,30.12,NE,54,1.1,1.1,79,0.00,CLR,,0.00,0.0,WeatherDisplay:10.37,2013-05-13 05:07:00,
2013-05-13 00:12:00,40.1,34.4,30.13,NE,53,3.5,3.5,80,0.00,CLR,,0.00,0.0,WeatherDisplay:10.37,2013-05-13 05:12:00,
2013-05-13 00:17:00,39.9,34.5,30.13,ENE,63,2.3,2.3,81,0.00,CLR,,0.00,0.0,WeatherDisplay:10.37,2013-05-13 05:17:00,
2013-05-13 00:22:00,39.7,34.7,30.13,ENE,61,1.1,1.1,82,0.00,CLR,,0.00,0.0,WeatherDisplay:10.37,2013-05-13 05:22:00,
2013-05-13 00:27:00,39.6,34.6,30.13,ENE,77,3.5,3.5,82,0.00,CLR,,0.00,0.0,WeatherDisplay:10.37,2013-05-13 05:27:00,
2013-05-13 00:32:00,39.4,34.7,30.13,ENE,77,1.1,1.1,83,0.00,CLR,,0.00,0.0,WeatherDisplay:10.37,2013-05-13 05:32:00,
2013-05-13 00:37:00,39.3,34.9,30.14,ENE,70,1.1,0.0,84,0.00,CLR,,0.00,0.0,WeatherDisplay:10.37,2013-05-13 05:37:00,
2013-05-13 00:42:00,39.1,34.7,30.14,East,80,0.0,0.0,84,0.00,CLR,,0.00,0.0,WeatherDisplay:10.37,2013-05-13 05:42:00,
2013-05-13 00:47:00,39.0,34.9,30.14,ENE,73,3.5,3.5,85,0.00,CLR,,0.00,0.0,WeatherDisplay:10.37,2013-05-13 05:47:00,
2013-05-13 00:52:00,39.0,35.2,30.14,ENE,73,1.1,0.0,86,0.00,CLR,,0.00,0.0,WeatherDisplay:10.37,2013-05-13 05:52:00,
2013-05-13 00:57:00,38.9,35.1,30.14,ENE,73,1.1,0.0,86,0.00,CLR,,0.00,0.0,WeatherDisplay:10.37,2013-05-13 05:57:00,
2013-05-13 01:02:00,38.7,34.9,30.14,ENE,73,0.0,0.0,86,0.00,CLR,,0.00,0.0,WeatherDisplay:10.37,2013-05-13 06:02:00,
2013-05-13 01:07:00,38.6,35.1,30.14,ENE,73,1.1,1.1,87,0.00,CLR,,0.00,0.0,WeatherDisplay:10.37,2013-05-13 06:07:00,
2013-05-13 01:12:00,38.5,35.0,30.14,ENE,73,2.3,2.3,87,0.00,CLR,,0.00,0.0,WeatherDisplay:10.37,2013-05-13 06:12:00,
2013-05-13 01:17:00,38.5,35.0,30.14,ENE,73,1.1,0.0,87,0.00,CLR,,0.00,0.0,WeatherDisplay:10.37,2013-05-13 06:17:00,
2013-05-13 01:22:00,38.5,35.0,30.14,ENE,73,0.0,0.0,87,0.00,CLR,,0.00,0.0,WeatherDisplay:10.37,2013-05-13 06:22:00,
2013-05-13 01:27:00,38.6,35.1,30.15,ENE,73,1.1,1.1,87,0.00,CLR,,0.00,0.0,WeatherDisplay:10.37,2013-05-13 06:27:00,
2013-05-13 01:32:00,38.5,35.0,30.15,ENE,73,1.1,0.0,87,0.00,CLR,,0.00,0.0,WeatherDisplay:10.37,2013-05-13 06:32:00,
2013-05-13 01:37:00,38.5,35.3,30.15,ENE,73,1.1,0.0,88,0.00,CLR,,0.00,0.0,WeatherDisplay:10.37,2013-05-13 06:37:00,
2013-05-13 01:42:00,38.4,35.2,30.15,ENE,73,0.0,0.0,88,0.00,CLR,,0.00,0.0,WeatherDisplay:10.37,2013-05-13 06:42:00,
2013-05-13 01:47:00,38.3,35.1,30.15,ENE,73,0.0,0.0,88,0.00,CLR,,0.00,0.0,WeatherDisplay:10.37,2013-05-13 06:47:00,
2013-05-13 01:52:00,38.2,35.0,30.15,ENE,73,2.3,2.3,88,0.00,CLR,,0.00,0.0,WeatherDisplay:10.37,2013-05-13 06:52:00,
2013-05-13 01:57:00,38.0,35.0,30.15,ENE,73,0.0,0.0,89,0.00,CLR,,0.00,0.0,WeatherDisplay:10.37,2013-05-13 06:57:00,
2013-05-13 02:02:00,37.9,34.9,30.15,ENE,73,0.0,0.0,89,0.00,CLR,,0.00,0.0,WeatherDisplay:10.37,2013-05-13 07:02:00,
2013-05-13 02:07:00,37.7,34.8,30.15,ENE,73,0.0,0.0,89,0.00,CLR,,0.00,0.0,WeatherDisplay:10.37,2013-05-13 07:07:00,
2013-05-13 02:12:00,37.6,34.7,30.15,ENE,73,0.0,0.0,89,0.00,CLR,,0.00,0.0,WeatherDisplay:10.37,2013-05-13 07:12:00,
2013-05-13 02:17:00,37.5,34.6,30.15,ENE,73,0.0,0.0,89,0.00,CLR,,0.00,0.0,WeatherDisplay:10.37,2013-05-13 07:17:00,
2013-05-13 02:22:00,37.3,34.6,30.15,ENE,73,0.0,0.0,90,0.00,CLR,,0.00,0.0,WeatherDisplay:10.37,2013-05-13 07:22:00,
2013-05-13 02:27:00,37.2,34.5,30.15,ENE,73,0.0,0.0,90,0.00,CLR,,0.00,0.0,WeatherDisplay:10.37,2013-05-13 07:27:00,
2013-05-13 02:32:00,37.2,34.5,30.15,ENE,73,0.0,0.0,90,0.00,CLR,,0.00,0.0,WeatherDisplay:10.37,2013-05-13 07:32:00,
2013-05-13 02:37:00,37.1,34.4,30.15,ENE,73,0.0,0.0,90,0.00,CLR,,0.00,0.0,WeatherDisplay:10.37,2013-05-13 07:37:00,
2013-05-13 02:42:00,36.9,34.2,30.15,ENE,73,0.0,0.0,90,0.00,CLR,,0.00,0.0,WeatherDisplay:10.37,2013-05-13 07:42:00,
2013-05-13 02:47:00,36.7,34.0,30.15,ENE,73,0.0,0.0,90,0.00,CLR,,0.00,0.0,WeatherDisplay:10.37,2013-05-13 07:47:00,
2013-05-13 02:52:00,36.5,33.8,30.15,ENE,73,0.0,0.0,90,0.00,CLR,,0.00,0.0,WeatherDisplay:10.37,2013-05-13 07:52:00,
2013-05-13 02:57:00,36.4,33.7,30.15,ENE,73,0.0,0.0,90,0.00,CLR,,0.00,0.0,WeatherDisplay:10.37,2013-05-13 07:57:00,
2013-05-13 03:02:00,36.2,33.5,30.15,ENE,73,0.0,0.0,90,0.00,CLR,,0.00,0.0,WeatherDisplay:10.37,2013-05-13 08:02:00,
2013-05-13 03:07:00,36.0,33.4,30.15,ENE,73,0.0,0.0,90,0.00,CLR,,0.00,0.0,WeatherDisplay:10.37,2013-05-13 08:07:00,
2013-05-13 03:12:00,36.0,33.6,30.15,ENE,73,0.0,0.0,91,0.00,CLR,,0.00,0.0,WeatherDisplay:10.37,2013-05-13 08:12:00,
2013-05-13 03:17:00,36.0,33.6,30.15,ENE,73,0.0,0.0,91,0.00,CLR,,0.00,0.0,WeatherDisplay:10.37,2013-05-13 08:17:00,
2013-05-13 03:22:00,36.1,33.7,30.15,ENE,73,0.0,0.0,91,0.00,CLR,,0.00,0.0,WeatherDisplay:10.37,2013-05-13 08:22:00,
2013-05-13 03:27:00,36.2,33.8,30.15,ENE,73,0.0,0.0,91,0.00,CLR,,0.00,0.0,WeatherDisplay:10.37,2013-05-13 08:27:00,
2013-05-13 03:32:00,36.2,33.8,30.15,ENE,73,0.0,0.0,91,0.00,CLR,,0.00,0.0,WeatherDisplay:10.37,2013-05-13 08:32:00,
2013-05-13 03:37:00,36.3,33.9,30.14,ENE,73,0.0,0.0,91,0.00,CLR,,0.00,0.0,WeatherDisplay:10.37,2013-05-13 08:37:00,
2013-05-13 03:42:00,36.3,33.9,30.14,ENE,73,0.0,0.0,91,0.00,CLR,,0.00,0.0,WeatherDisplay:10.37,2013-05-13 08:42:00,
2013-05-13 03:47:00,36.2,33.8,30.14,ENE,73,0.0,0.0,91,0.00,CLR,,0.00,0.0,WeatherDisplay:10.37,2013-05-13 08:47:00,
2013-05-13 03:52:00,36.0,33.6,30.14,ENE,73,0.0,0.0,91,0.00,CLR,,0.00,0.0,WeatherDisplay:10.37,2013-05-13 08:52:00,
2013-05-13 03:57:00,35.5,33.1,30.14,ENE,73,0.0,0.0,91,0.00,CLR,,0.00,0.0,WeatherDisplay:10.37,2013-05-13 08:57:00,
2013-05-13 04:02:00,35.0,32.6,30.14,ENE,73,0.0,0.0,91,0.00,CLR,,0.00,0.0,WeatherDisplay:10.37,2013-05-13 09:02:00,
2013-05-13 04:07:00,34.8,32.4,30.14,ENE,73,0.0,0.0,91,0.00,CLR,,0.00,0.0,WeatherDisplay:10.37,2013-05-13 09:07:00,
2013-05-13 04:12:00,34.5,32.1,30.14,ENE,73,0.0,0.0,91,0.00,CLR,,0.00,0.0,WeatherDisplay:10.37,2013-05-13 09:12:00,
2013-05-13 04:17:00,34.5,32.1,30.14,ENE,73,0.0,0.0,91,0.00,CLR,,0.00,0.0,WeatherDisplay:10.37,2013-05-13 09:17:00,
2013-05-13 04:22:00,34.4,32.0,30.14,ENE,73,0.0,0.0,91,0.00,CLR,,0.00,0.0,WeatherDisplay:10.37,2013-05-13 09:22:00,
2013-05-13 04:27:00,34.2,31.8,30.14,ENE,73,0.0,0.0,91,0.00,CLR,,0.00,0.0,WeatherDisplay:10.37,2013-05-13 09:27:00,
2013-05-13 04:32:00,34.1,31.7,30.15,ENE,73,0.0,0.0,91,0.00,CLR,,0.00,0.0,WeatherDisplay:10.37,2013-05-13 09:32:00,
2013-05-13 04:37:00,34.0,31.6,30.15,ENE,73,0.0,0.0,91,0.00,CLR,,0.00,0.0,WeatherDisplay:10.37,2013-05-13 09:37:00,
2013-05-13 04:42:00,33.9,31.6,30.15,ENE,73,0.0,0.0,91,0.00,CLR,,0.00,0.0,WeatherDisplay:10.37,2013-05-13 09:42:00,
2013-05-13 04:47:00,33.8,31.5,30.15,ENE,73,0.0,0.0,91,0.00,CLR,,0.00,0.0,WeatherDisplay:10.37,2013-05-13 09:47:00,
2013-05-13 04:52:00,33.7,31.4,30.15,ENE,73,0.0,0.0,91,0.00,CLR,,0.00,0.0,WeatherDisplay:10.37,2013-05-13 09:52:00,
2013-05-13 04:57:00,33.6,31.3,30.15,ENE,73,0.0,0.0,91,0.00,CLR,,0.00,0.0,WeatherDisplay:10.37,2013-05-13 09:57:00,
2013-05-13 05:02:00,33.6,31.3,30.15,ENE,73,0.0,0.0,91,0.00,OVC,,0.00,0.0,WeatherDisplay:10.37,2013-05-13 10:02:00,
2013-05-13 05:07:00,33.6,31.3,30.15,ENE,73,0.0,0.0,91,0.00,OVC,,0.00,0.0,WeatherDisplay:10.37,2013-05-13 10:07:00,
2013-05-13 05:12:00,33.5,31.4,30.15,ENE,73,0.0,0.0,92,0.00,OVC,,0.00,0.0,WeatherDisplay:10.37,2013-05-13 10:12:00,
2013-05-13 05:17:00,33.5,31.4,30.15,ENE,73,0.0,0.0,92,0.00,OVC,,0.00,0.0,WeatherDisplay:10.37,2013-05-13 10:17:00,
2013-05-13 05:22:00,33.4,31.3,30.15,ENE,73,0.0,0.0,92,0.00,OVC,,0.00,0.0,WeatherDisplay:10.37,2013-05-13 10:22:00,
2013-05-13 05:27:00,33.3,31.2,30.15,ENE,73,0.0,0.0,92,0.00,OVC,,0.00,0.0,WeatherDisplay:10.37,2013-05-13 10:27:00,
2013-05-13 05:32:00,33.3,31.2,30.15,ENE,73,0.0,0.0,92,0.00,OVC,,0.00,0.0,WeatherDisplay:10.37,2013-05-13 10:32:00,
2013-05-13 05:37:00,33.3,31.2,30.15,ENE,73,0.0,0.0,92,0.00,OVC,,0.00,0.0,WeatherDisplay:10.37,2013-05-13 10:37:00,
2013-05-13 05:42:00,33.3,31.2,30.15,ENE,73,0.0,0.0,92,0.00,BKN,,0.00,5.0,WeatherDisplay:10.37,2013-05-13 10:42:00,
2013-05-13 05:47:00,33.3,31.2,30.16,ENE,73,0.0,0.0,92,0.00,BKN,,0.00,7.0,WeatherDisplay:10.37,2013-05-13 10:47:00,
2013-05-13 05:52:00,33.3,31.2,30.16,ENE,73,0.0,0.0,92,0.00,BKN,,0.00,9.0,WeatherDisplay:10.37,2013-05-13 10:52:00,
2013-05-13 05:57:00,33.3,31.2,30.16,ENE,73,0.0,0.0,92,0.00,BKN,,0.00,11.0,WeatherDisplay:10.37,2013-05-13 10:57:00,
2013-05-13 06:02:00,33.3,31.2,30.16,ENE,73,0.0,0.0,92,0.00,BKN,,0.00,12.0,WeatherDisplay:10.37,2013-05-13 11:02:00,
2013-05-13 06:07:00,33.3,31.2,30.16,ENE,73,0.0,0.0,92,0.00,BKN,,0.00,14.0,WeatherDisplay:10.37,2013-05-13 11:07:00,
2013-05-13 06:12:00,33.4,31.3,30.16,ENE,73,0.0,0.0,92,0.00,BKN,,0.00,16.0,WeatherDisplay:10.37,2013-05-13 11:12:00,
2013-05-13 06:17:00,33.5,31.4,30.17,ENE,73,0.0,0.0,92,0.00,BKN,,0.00,18.0,WeatherDisplay:10.37,2013-05-13 11:17:00,
2013-05-13 06:22:00,33.7,31.6,30.17,ENE,73,0.0,0.0,92,0.00,BKN,,0.00,19.0,WeatherDisplay:10.37,2013-05-13 11:22:00,
2013-05-13 06:27:00,33.9,32.1,30.17,ENE,73,0.0,0.0,93,0.00,BKN,,0.00,21.0,WeatherDisplay:10.37,2013-05-13 11:27:00,
2013-05-13 06:32:00,34.3,32.5,30.17,ENE,73,0.0,0.0,93,0.00,BKN,,0.00,25.0,WeatherDisplay:10.37,2013-05-13 11:32:00,
2013-05-13 06:37:00,34.5,32.7,30.17,ENE,73,0.0,0.0,93,0.00,BKN,,0.00,26.0,WeatherDisplay:10.37,2013-05-13 11:37:00,
2013-05-13 06:42:00,34.6,32.8,30.18,ENE,73,0.0,0.0,93,0.00,BKN,,0.00,33.0,WeatherDisplay:10.37,2013-05-13 11:42:00,
2013-05-13 06:47:00,35.0,33.2,30.18,ENE,73,0.0,0.0,93,0.00,BKN,,0.00,30.0,WeatherDisplay:10.37,2013-05-13 11:47:00,
2013-05-13 06:52:00,35.3,33.5,30.18,ENE,73,0.0,0.0,93,0.00,BKN,,0.00,47.0,WeatherDisplay:10.37,2013-05-13 11:52:00,
2013-05-13 06:57:00,35.5,33.7,30.18,ENE,73,0.0,0.0,93,0.00,BKN,,0.00,46.0,WeatherDisplay:10.37,2013-05-13 11:57:00,
2013-05-13 07:02:00,35.9,34.1,30.18,ENE,73,0.0,0.0,93,0.00,BKN,,0.00,35.0,WeatherDisplay:10.37,2013-05-13 12:02:00,
2013-05-13 07:07:00,36.2,34.4,30.18,ENE,73,0.0,0.0,93,0.00,BKN,,0.00,105.0,WeatherDisplay:10.37,2013-05-13 12:07:00,
2013-05-13 07:12:00,36.5,34.7,30.18,ENE,73,0.0,0.0,93,0.00,BKN,,0.00,144.0,WeatherDisplay:10.37,2013-05-13 12:12:00,
2013-05-13 07:17:00,37.0,35.2,30.18,ENE,73,0.0,0.0,93,0.00,SCT,,0.00,202.0,WeatherDisplay:10.37,2013-05-13 12:17:00,
2013-05-13 07:22:00,37.4,35.6,30.18,ENE,73,0.0,0.0,93,0.00,FEW,,0.00,223.0,WeatherDisplay:10.37,2013-05-13 12:22:00,
2013-05-13 07:27:00,38.1,36.3,30.18,ENE,73,0.0,0.0,93,0.00,CLR,,0.00,239.0,WeatherDisplay:10.37,2013-05-13 12:27:00,
2013-05-13 07:32:00,38.8,36.7,30.18,ENE,73,0.0,0.0,92,0.00,CLR,,0.00,209.0,WeatherDisplay:10.37,2013-05-13 12:32:00,
2013-05-13 07:37:00,39.6,37.2,30.18,ENE,73,0.0,0.0,91,0.00,SCT,,0.00,169.0,WeatherDisplay:10.37,2013-05-13 12:37:00,
2013-05-13 07:42:00,40.2,37.2,30.19,ENE,73,0.0,0.0,89,0.00,SCT,,0.00,218.0,WeatherDisplay:10.37,2013-05-13 12:42:00,
2013-05-13 07:47:00,41.0,36.8,30.19,ENE,73,1.1,0.0,85,0.00,SCT,,0.00,195.0,WeatherDisplay:10.37,2013-05-13 12:47:00,
2013-05-13 07:52:00,41.8,36.4,30.19,ENE,73,1.1,1.1,81,0.00,SCT,,0.00,169.0,WeatherDisplay:10.37,2013-05-13 12:52:00,
2013-05-13 07:57:00,42.5,35.1,30.19,SE,140,0.0,0.0,75,0.00,BKN,,0.00,160.0,WeatherDisplay:10.37,2013-05-13 12:57:00,
2013-05-13 08:02:00,43.1,33.6,30.19,South,179,2.3,2.3,69,0.00,BKN,,0.00,107.0,WeatherDisplay:10.37,2013-05-13 13:02:00,
2013-05-13 08:07:00,43.8,33.9,30.19,South,178,0.0,0.0,68,0.00,BKN,,0.00,141.0,WeatherDisplay:10.37,2013-05-13 13:07:00,
2013-05-13 08:12:00,44.3,33.3,30.19,East,85,0.0,0.0,65,0.00,BKN,,0.00,156.0,WeatherDisplay:10.37,2013-05-13 13:12:00,
2013-05-13 08:17:00,44.8,32.2,30.19,SSW,203,2.3,2.3,61,0.00,BKN,,0.00,227.0,WeatherDisplay:10.37,2013-05-13 13:17:00,
2013-05-13 08:22:00,45.1,31.6,30.19,SSW,202,1.1,1.1,59,0.00,BKN,,0.00,278.0,WeatherDisplay:10.37,2013-05-13 13:22:00,
2013-05-13 08:27:00,45.3,31.4,30.19,SSW,202,0.0,0.0,58,0.00,BKN,,0.00,204.0,WeatherDisplay:10.37,2013-05-13 13:27:00,
2013-05-13 08:32:00,45.6,32.1,30.19,SSW,202,1.1,1.1,59,0.00,BKN,,0.00,156.0,WeatherDisplay:10.37,2013-05-13 13:32:00,
2013-05-13 08:37:00,45.8,31.9,30.19,SSW,202,0.0,0.0,58,0.00,BKN,,0.00,186.0,WeatherDisplay:10.37,2013-05-13 13:37:00,
2013-05-13 08:42:00,46.2,32.7,30.20,West,279,0.0,0.0,59,0.00,BKN,,0.00,178.0,WeatherDisplay:10.37,2013-05-13 13:42:00,
2013-05-13 08:47:00,46.4,32.0,30.19,West,273,0.0,0.0,57,0.00,BKN,,0.00,102.0,WeatherDisplay:10.37,2013-05-13 13:47:00,
2013-05-13 08:52:00,46.8,33.2,30.20,West,280,0.0,0.0,59,0.00,BKN,,0.00,229.0,WeatherDisplay:10.37,2013-05-13 13:52:00,
2013-05-13 08:57:00,47.4,32.9,30.19,West,279,1.1,0.0,57,0.00,BKN,,0.00,151.0,WeatherDisplay:10.37,2013-05-13 13:57:00,
2013-05-13 09:02:00,48.0,32.6,30.19,WSW,256,1.1,1.1,55,0.00,BKN,,0.00,399.0,WeatherDisplay:10.37,2013-05-13 14:02:00,
2013-05-13 09:07:00,48.2,32.3,30.19,South,187,1.1,1.1,54,0.00,SCT,,0.00,459.0,WeatherDisplay:10.37,2013-05-13 14:07:00,
2013-05-13 09:12:00,48.2,32.3,30.19,WNW,298,1.1,0.0,54,0.00,FEW,,0.00,577.0,WeatherDisplay:10.37,2013-05-13 14:12:00,
2013-05-13 09:17:00,48.6,33.1,30.19,WNW,285,1.1,0.0,55,0.00,CLR,,0.00,584.0,WeatherDisplay:10.37,2013-05-13 14:17:00,
2013-05-13 09:22:00,48.9,31.5,30.19,NE,48,0.0,0.0,51,0.00,CLR,,0.00,610.0,WeatherDisplay:10.37,2013-05-13 14:22:00,
2013-05-13 09:27:00,49.6,32.7,30.19,NE,48,0.0,0.0,52,0.00,CLR,,0.00,626.0,WeatherDisplay:10.37,2013-05-13 14:27:00,
2013-05-13 09:32:00,49.9,30.5,30.19,SSW,200,0.0,0.0,47,0.00,CLR,,0.00,629.0,WeatherDisplay:10.37,2013-05-13 14:32:00,
2013-05-13 09:37:00,49.8,30.4,30.19,SSW,201,0.0,0.0,47,0.00,CLR,,0.00,652.0,WeatherDisplay:10.37,2013-05-13 14:37:00,
2013-05-13 09:42:00,50.0,31.6,30.19,SSW,201,1.0,0.0,49,0.00,CLR,,0.00,671.0,WeatherDisplay:10.37,2013-05-13 14:42:00,
2013-05-13 09:47:00,50.5,29.9,30.19,NE,50,0.0,0.0,45,0.00,CLR,,0.00,686.0,WeatherDisplay:10.37,2013-05-13 14:47:00,
2013-05-13 09:52:00,50.4,29.8,30.19,NE,50,0.0,0.0,45,0.00,CLR,,0.00,700.0,WeatherDisplay:10.37,2013-05-13 14:52:00,
2013-05-13 09:57:00,50.8,30.7,30.19,NE,50,0.0,0.0,46,0.00,CLR,,0.00,714.0,WeatherDisplay:10.37,2013-05-13 14:57:00,
2013-05-13 10:02:00,51.4,31.8,30.19,NE,50,1.1,1.1,47,0.00,CLR,,0.00,728.0,WeatherDisplay:10.37,2013-05-13 15:02:00,
2013-05-13 10:07:00,51.3,31.7,30.19,NE,50,1.0,0.0,47,0.00,CLR,,0.00,744.0,WeatherDisplay:10.37,2013-05-13 15:07:00,
2013-05-13 10:12:00,51.8,32.7,30.19,NE,50,0.0,0.0,48,0.00,CLR,,0.00,758.0,WeatherDisplay:10.37,2013-05-13 15:12:00,
2013-05-13 10:17:00,52.4,32.2,30.19,NE,50,0.0,0.0,46,0.00,CLR,,0.00,770.0,WeatherDisplay:10.37,2013-05-13 15:17:00,
2013-05-13 10:22:00,52.6,31.8,30.19,NE,50,3.5,0.0,45,0.00,CLR,,0.00,780.0,WeatherDisplay:10.37,2013-05-13 15:22:00,
2013-05-13 10:27:00,53.1,32.8,30.19,NE,50,0.0,0.0,46,0.00,CLR,,0.00,791.0,WeatherDisplay:10.37,2013-05-13 15:27:00,
2013-05-13 10:32:00,53.3,32.5,30.19,NE,50,0.0,0.0,45,0.00,CLR,,0.00,802.0,WeatherDisplay:10.37,2013-05-13 15:32:00,
2013-05-13 10:37:00,53.1,31.2,30.19,SSW,208,2.3,2.3,43,0.00,CLR,,0.00,817.0,WeatherDisplay:10.37,2013-05-13 15:37:00,
2013-05-13 10:42:00,53.1,31.2,30.19,SW,227,2.3,2.3,43,0.00,CLR,,0.00,830.0,WeatherDisplay:10.37,2013-05-13 15:42:00,
2013-05-13 10:47:00,53.5,32.1,30.19,SSW,204,3.5,3.5,44,0.00,CLR,,0.00,835.0,WeatherDisplay:10.37,2013-05-13 15:47:00,
2013-05-13 10:52:00,52.7,30.2,30.19,NW,308,0.0,0.0,42,0.00,CLR,,0.00,844.0,WeatherDisplay:10.37,2013-05-13 15:52:00,
2013-05-13 10:57:00,52.9,33.2,30.19,SSE,148,0.0,0.0,47,0.00,CLR,,0.00,854.0,WeatherDisplay:10.37,2013-05-13 15:57:00,
2013-05-13 11:02:00,53.5,32.1,30.19,WNW,284,1.1,1.1,44,0.00,CLR,,0.00,863.0,WeatherDisplay:10.37,2013-05-13 16:02:00,
2013-05-13 11:07:00,54.0,33.1,30.19,WNW,289,5.8,5.8,45,0.00,CLR,,0.00,874.0,WeatherDisplay:10.37,2013-05-13 16:07:00,
2013-05-13 11:12:00,54.0,30.8,30.19,SSW,208,5.8,5.8,41,0.00,CLR,,0.00,884.0,WeatherDisplay:10.37,2013-05-13 16:12:00,
2013-05-13 11:17:00,54.2,32.2,30.19,SW,236,1.1,1.1,43,0.00,CLR,,0.00,884.0,WeatherDisplay:10.37,2013-05-13 16:17:00,
2013-05-13 11:22:00,54.4,32.3,30.18,WSW,248,2.3,0.0,43,0.00,CLR,,0.00,898.0,WeatherDisplay:10.37,2013-05-13 16:22:00,
2013-05-13 11:27:00,54.6,30.7,30.18,WSW,246,1.1,1.1,40,0.00,CLR,,0.00,907.0,WeatherDisplay:10.37,2013-05-13 16:27:00,
2013-05-13 11:32:00,54.8,32.7,30.18,NW,321,0.0,0.0,43,0.00,CLR,,0.00,905.0,WeatherDisplay:10.37,2013-05-13 16:32:00,
2013-05-13 11:37:00,55.1,33.0,30.18,SW,234,1.1,1.1,43,0.00,CLR,,0.00,921.0,WeatherDisplay:10.37,2013-05-13 16:37:00,
2013-05-13 11:42:00,55.8,35.3,30.18,WSW,254,0.0,0.0,46,0.00,CLR,,0.00,932.0,WeatherDisplay:10.37,2013-05-13 16:42:00,
2013-05-13 11:47:00,56.1,33.3,30.18,SW,225,2.3,2.3,42,0.00,CLR,,0.00,940.0,WeatherDisplay:10.37,2013-05-13 16:47:00,
2013-05-13 11:52:00,56.7,33.8,30.18,WSW,247,0.0,0.3,42,0.00,CLR,,0.00,939.0,WeatherDisplay:10.37,2013-05-13 16:52:00,
2013-05-13 11:57:00,56.3,34.1,30.17,WSW,257,5.8,5.8,43,0.00,CLR,,0.00,946.0,WeatherDisplay:10.37,2013-05-13 16:57:00,
2013-05-13 12:02:00,55.6,32.2,30.17,SSW,200,0.0,0.0,41,0.00,CLR,,0.00,949.0,WeatherDisplay:10.37,2013-05-13 17:02:00,
2013-05-13 12:07:00,56.1,33.3,30.17,NE,49,0.0,0.1,42,0.00,CLR,,0.00,954.0,WeatherDisplay:10.37,2013-05-13 17:07:00,
2013-05-13 12:12:00,55.9,33.1,30.17,WSW,255,2.3,0.0,42,0.00,CLR,,0.00,956.0,WeatherDisplay:10.37,2013-05-13 17:12:00,
2013-05-13 12:17:00,56.0,34.4,30.17,WSW,248,2.0,2.0,44,0.00,CLR,,0.00,963.0,WeatherDisplay:10.37,2013-05-13 17:17:00,
2013-05-13 12:22:00,56.7,35.0,30.17,WNW,288,1.1,1.1,44,0.00,CLR,,0.00,969.0,WeatherDisplay:10.37,2013-05-13 17:22:00,
2013-05-13 12:27:00,57.3,34.4,30.16,SW,223,2.3,2.3,42,0.00,CLR,,0.00,969.0,WeatherDisplay:10.37,2013-05-13 17:27:00,
2013-05-13 12:32:00,57.8,32.3,30.16,West,269,1.1,0.0,38,0.00,CLR,,0.00,974.0,WeatherDisplay:10.37,2013-05-13 17:32:00,
2013-05-13 12:37:00,57.7,31.6,30.16,North,349,0.0,0.0,37,0.00,CLR,,0.00,974.0,WeatherDisplay:10.37,2013-05-13 17:37:00,
2013-05-13 12:42:00,57.8,33.0,30.16,ENE,57,1.1,1.1,39,0.00,CLR,,0.00,979.0,WeatherDisplay:10.37,2013-05-13 17:42:00,
2013-05-13 12:47:00,58.0,33.2,30.16,SSW,206,2.0,2.0,39,0.00,CLR,,0.00,977.0,WeatherDisplay:10.37,2013-05-13 17:47:00,
2013-05-13 12:52:00,57.9,33.1,30.15,North,11,3.5,3.5,39,0.00,CLR,,0.00,976.0,WeatherDisplay:10.37,2013-05-13 17:52:00,
2013-05-13 12:57:00,57.6,31.5,30.15,SW,231,10.4,10.4,37,0.00,CLR,,0.00,981.0,WeatherDisplay:10.37,2013-05-13 17:57:00,
2013-05-13 13:02:00,57.4,34.5,30.15,West,265,1.1,1.1,42,0.00,CLR,,0.00,981.0,WeatherDisplay:10.37,2013-05-13 18:02:00,
2013-05-13 13:07:00,58.3,35.3,30.15,SW,226,6.9,6.9,42,0.00,CLR,,0.00,969.0,WeatherDisplay:10.37,2013-05-13 18:07:00,
2013-05-13 13:12:00,57.8,33.6,30.14,West,268,1.1,1.1,40,0.00,CLR,,0.00,977.0,WeatherDisplay:10.37,2013-05-13 18:12:00,
2013-05-13 13:17:00,57.6,34.7,30.14,SSW,206,2.3,2.3,42,0.00,CLR,,0.00,976.0,WeatherDisplay:10.37,2013-05-13 18:17:00,
2013-05-13 13:22:00,57.9,34.3,30.14,SSW,194,1.1,1.1,41,0.00,CLR,,0.00,974.0,WeatherDisplay:10.37,2013-05-13 18:22:00,
2013-05-13 13:27:00,57.7,34.7,30.14,West,269,3.5,3.5,42,0.00,CLR,,0.00,974.0,WeatherDisplay:10.37,2013-05-13 18:27:00,
2013-05-13 13:32:00,58.1,31.3,30.14,South,177,2.3,2.3,36,0.00,CLR,,0.00,990.0,WeatherDisplay:10.37,2013-05-13 18:32:00,
2013-05-13 13:37:00,59.1,37.2,30.13,WSW,249,0.0,0.2,44,0.00,CLR,,0.00,976.0,WeatherDisplay:10.37,2013-05-13 18:37:00,
2013-05-13 13:42:00,59.1,33.5,30.13,West,261,0.0,0.0,38,0.00,CLR,,0.00,967.0,WeatherDisplay:10.37,2013-05-13 18:42:00,
2013-05-13 13:47:00,59.3,35.0,30.13,SW,226,0.0,0.0,40,0.00,CLR,,0.00,951.0,WeatherDisplay:10.37,2013-05-13 18:47:00,
2013-05-13 13:52:00,59.4,34.4,30.13,WSW,238,3.5,3.5,39,0.00,CLR,,0.00,963.0,WeatherDisplay:10.37,2013-05-13 18:52:00,
2013-05-13 13:57:00,58.9,32.7,30.13,West,260,3.5,3.5,37,0.00,CLR,,0.00,956.0,WeatherDisplay:10.37,2013-05-13 18:57:00,
2013-05-13 14:02:00,59.1,35.4,30.13,SW,236,2.3,2.3,41,0.00,CLR,,0.00,960.0,WeatherDisplay:10.37,2013-05-13 19:02:00,
2013-05-13 14:07:00,60.3,33.9,30.12,SW,217,1.1,1.1,37,0.00,CLR,,0.00,919.0,WeatherDisplay:10.37,2013-05-13 19:07:00,
2013-05-13 14:12:00,59.9,34.2,30.12,West,262,0.0,0.0,38,0.00,CLR,,0.00,889.0,WeatherDisplay:10.37,2013-05-13 19:12:00,
2013-05-13 14:17:00,60.6,37.4,30.12,SSW,209,3.5,3.5,42,0.00,CLR,,0.00,923.0,WeatherDisplay:10.37,2013-05-13 19:17:00,
2013-05-13 14:22:00,60.9,33.0,30.12,North,358,1.1,1.1,35,0.00,CLR,,0.00,807.0,WeatherDisplay:10.37,2013-05-13 19:22:00,
2013-05-13 14:27:00,60.1,33.0,30.12,SSW,196,6.9,6.9,36,0.00,CLR,,0.00,738.0,WeatherDisplay:10.37,2013-05-13 19:27:00,
2013-05-13 14:32:00,59.3,34.3,30.12,SSW,203,5.8,5.8,39,0.00,FEW,,0.00,821.0,WeatherDisplay:10.37,2013-05-13 19:32:00,
2013-05-13 14:37:00,59.8,32.1,30.11,SSW,196,1.1,1.1,35,0.00,FEW,,0.00,756.0,WeatherDisplay:10.37,2013-05-13 19:37:00,
2013-05-13 14:42:00,59.9,32.9,30.11,West,261,0.0,0.0,36,0.00,CLR,,0.00,810.0,WeatherDisplay:10.37,2013-05-13 19:42:00,
2013-05-13 14:47:00,60.5,33.4,30.11,West,277,0.0,0.0,36,0.00,CLR,,0.00,868.0,WeatherDisplay:10.37,2013-05-13 19:47:00,
2013-05-13 14:52:00,60.2,31.7,30.11,WSW,241,3.5,3.5,34,0.00,CLR,,0.00,868.0,WeatherDisplay:10.37,2013-05-13 19:52:00,
2013-05-13 14:57:00,60.6,33.5,30.10,WSW,252,1.1,0.0,36,0.00,CLR,,0.00,835.0,WeatherDisplay:10.37,2013-05-13 19:57:00,
2013-05-13 15:02:00,60.7,32.1,30.10,SW,229,1.1,1.1,34,0.00,CLR,,0.00,819.0,WeatherDisplay:10.37,2013-05-13 20:02:00,
2013-05-13 15:07:00,60.7,34.3,30.10,SW,229,0.0,0.0,37,0.00,CLR,,0.00,809.0,WeatherDisplay:10.37,2013-05-13 20:07:00,
2013-05-13 15:12:00,61.4,34.9,30.10,WSW,252,3.0,3.0,37,0.00,CLR,,0.00,824.0,WeatherDisplay:10.37,2013-05-13 20:12:00,
2013-05-13 15:17:00,61.7,32.3,30.10,West,263,2.0,2.0,33,0.00,CLR,,0.00,800.0,WeatherDisplay:10.37,2013-05-13 20:17:00,
2013-05-13 15:22:00,61.3,31.9,30.09,SSW,208,3.5,0.0,33,0.00,CLR,,0.00,759.0,WeatherDisplay:10.37,2013-05-13 20:22:00,
2013-05-13 15:27:00,61.5,32.1,30.09,South,190,3.5,3.5,33,0.00,CLR,,0.00,726.0,WeatherDisplay:10.37,2013-05-13 20:27:00,
2013-05-13 15:32:00,61.2,32.6,30.08,SW,234,2.3,2.3,34,0.00,CLR,,0.00,742.0,WeatherDisplay:10.37,2013-05-13 20:32:00,
2013-05-13 15:37:00,61.9,33.9,30.08,West,272,3.5,3.5,35,0.00,CLR,,0.00,682.0,WeatherDisplay:10.37,2013-05-13 20:37:00,
2013-05-13 15:42:00,61.7,33.7,30.08,SW,236,1.1,1.1,35,0.00,CLR,,0.00,650.0,WeatherDisplay:10.37,2013-05-13 20:42:00,
2013-05-13 15:47:00,61.7,34.5,30.08,SW,215,2.3,2.3,36,0.00,FEW,,0.00,596.0,WeatherDisplay:10.37,2013-05-13 20:47:00,
2013-05-13 15:52:00,62.2,36.3,30.08,South,186,1.1,1.1,38,0.00,FEW,,0.00,724.0,WeatherDisplay:10.37,2013-05-13 20:52:00,
2013-05-13 15:57:00,62.7,35.3,30.08,WSW,253,3.5,3.5,36,0.00,CLR,,0.00,712.0,WeatherDisplay:10.37,2013-05-13 20:57:00,
2013-05-13 16:02:00,62.6,35.9,30.07,West,273,2.0,2.0,37,0.00,CLR,,0.00,592.0,WeatherDisplay:10.37,2013-05-13 21:02:00,
2013-05-13 16:07:00,62.1,32.6,30.07,WSW,246,3.5,3.5,33,0.00,FEW,,0.00,578.0,WeatherDisplay:10.37,2013-05-13 21:07:00,
2013-05-13 16:12:00,61.9,33.2,30.07,WNW,291,2.3,2.3,34,0.00,FEW,,0.00,436.0,WeatherDisplay:10.37,2013-05-13 21:12:00,
2013-05-13 16:17:00,62.0,36.1,30.07,West,280,2.3,2.3,38,0.00,SCT,,0.00,469.0,WeatherDisplay:10.37,2013-05-13 21:17:00,
2013-05-13 16:22:00,62.0,35.4,30.07,SW,225,3.5,3.5,37,0.00,SCT,,0.00,353.0,WeatherDisplay:10.37,2013-05-13 21:22:00,
2013-05-13 16:27:00,61.9,33.2,30.07,ESE,121,2.3,0.0,34,0.00,SCT,,0.00,381.0,WeatherDisplay:10.37,2013-05-13 21:27:00,
2013-05-13 16:32:00,61.8,34.5,30.07,ESE,121,1.1,0.0,36,0.00,SCT,,0.00,413.0,WeatherDisplay:10.37,2013-05-13 21:32:00,
2013-05-13 16:37:00,62.1,34.8,30.06,SW,214,4.6,4.6,36,0.00,SCT,,0.00,446.0,WeatherDisplay:10.37,2013-05-13 21:37:00,
2013-05-13 16:42:00,62.1,34.1,30.06,SW,231,3.5,3.5,35,0.00,FEW,,0.00,450.0,WeatherDisplay:10.37,2013-05-13 21:42:00,
2013-05-13 16:47:00,62.4,36.4,30.06,West,271,1.1,0.0,38,0.00,FEW,,0.00,392.0,WeatherDisplay:10.37,2013-05-13 21:47:00,
2013-05-13 16:52:00,62.3,32.8,30.06,South,184,1.1,0.0,33,0.00,SCT,,0.00,336.0,WeatherDisplay:10.37,2013-05-13 21:52:00,
2013-05-13 16:57:00,62.2,34.2,30.06,SSE,154,3.5,3.5,35,0.00,SCT,,0.00,308.0,WeatherDisplay:10.37,2013-05-13 21:57:00,
2013-05-13 17:02:00,62.3,36.4,30.06,WSW,241,1.1,1.1,38,0.00,SCT,,0.00,271.0,WeatherDisplay:10.37,2013-05-13 22:02:00,
2013-05-13 17:07:00,62.1,34.8,30.06,SW,218,3.5,3.5,36,0.00,SCT,,0.00,315.0,WeatherDisplay:10.37,2013-05-13 22:07:00,
2013-05-13 17:12:00,62.1,36.2,30.06,West,280,0.0,0.1,38,0.00,SCT,,0.00,376.0,WeatherDisplay:10.37,2013-05-13 22:12:00,
2013-05-13 17:17:00,62.2,34.2,30.06,WSW,237,2.3,2.3,35,0.00,SCT,,0.00,327.0,WeatherDisplay:10.37,2013-05-13 22:17:00,
2013-05-13 17:22:00,62.1,34.8,30.06,West,263,3.5,3.5,36,0.00,SCT,,0.00,246.0,WeatherDisplay:10.37,2013-05-13 22:22:00,
2013-05-13 17:27:00,62.0,34.0,30.05,SW,233,1.1,1.1,35,0.00,SCT,,0.00,146.0,WeatherDisplay:10.37,2013-05-13 22:27:00,
2013-05-13 17:32:00,61.7,33.7,30.05,SW,234,0.0,0.0,35,0.00,BKN,,0.00,127.0,WeatherDisplay:10.37,2013-05-13 22:32:00,
2013-05-13 17:37:00,61.4,36.2,30.05,WSW,242,1.1,0.0,39,0.00,BKN,,0.00,128.0,WeatherDisplay:10.37,2013-05-13 22:37:00,
2013-05-13 17:42:00,61.1,34.6,30.05,West,279,3.5,3.5,37,0.00,BKN,,0.00,127.0,WeatherDisplay:10.37,2013-05-13 22:42:00,
2013-05-13 17:47:00,60.9,33.0,30.05,WSW,238,4.6,4.6,35,0.00,BKN,,0.00,123.0,WeatherDisplay:10.37,2013-05-13 22:47:00,
2013-05-13 17:52:00,60.8,34.3,30.05,WSW,239,0.0,0.0,37,0.00,BKN,,0.00,116.0,WeatherDisplay:10.37,2013-05-13 22:52:00,
2013-05-13 17:57:00,60.7,35.6,30.06,East,79,1.1,1.1,39,0.00,BKN,,0.00,111.0,WeatherDisplay:10.37,2013-05-13 22:57:00,
2013-05-13 18:02:00,59.1,38.3,30.06,East,80,1.1,0.0,46,0.00,BKN,,0.00,100.0,WeatherDisplay:10.37,2013-05-13 23:02:00,
2013-05-13 18:07:00,57.6,38.6,30.05,East,80,1.1,0.0,49,0.00,BKN,,0.00,102.0,WeatherDisplay:10.37,2013-05-13 23:07:00,
2013-05-13 18:12:00,56.8,38.9,30.05,East,80,1.1,1.1,51,0.00,BKN,,0.00,97.0,WeatherDisplay:10.37,2013-05-13 23:12:00,
2013-05-13 18:17:00,56.1,38.2,30.04,East,80,0.0,0.6,51,0.00,BKN,,0.00,81.0,WeatherDisplay:10.37,2013-05-13 23:17:00,
2013-05-13 18:22:00,55.5,37.7,30.04,East,79,1.1,0.0,51,0.00,BKN,,0.00,74.0,WeatherDisplay:10.37,2013-05-13 23:22:00,
2013-05-13 18:27:00,55.0,37.7,30.04,East,79,3.5,3.5,52,0.00,BKN,,0.00,60.0,WeatherDisplay:10.37,2013-05-13 23:27:00,
2013-05-13 18:32:00,54.5,37.7,30.04,East,79,3.5,3.5,53,0.00,BKN,,0.00,58.0,WeatherDisplay:10.37,2013-05-13 23:32:00,
2013-05-13 18:37:00,54.2,37.9,30.04,East,79,1.1,0.0,54,0.00,BKN,,0.00,56.0,WeatherDisplay:10.37,2013-05-13 23:37:00,
2013-05-13 18:42:00,53.8,37.5,30.03,East,79,2.3,0.0,54,0.00,BKN,,0.00,67.0,WeatherDisplay:10.37,2013-05-13 23:42:00,
2013-05-13 18:47:00,53.3,36.6,30.02,ENE,77,4.6,4.6,53,0.00,BKN,,0.00,47.0,WeatherDisplay:10.37,2013-05-13 23:47:00,
2013-05-13 18:52:00,52.6,36.4,30.02,East,90,3.5,3.5,54,0.00,BKN,,0.00,35.0,WeatherDisplay:10.37,2013-05-13 23:52:00,
2013-05-13 18:57:00,52.1,35.9,30.02,ESE,102,4.6,4.6,54,0.00,BKN,,0.00,39.0,WeatherDisplay:10.37,2013-05-13 23:57:00,
2013-05-13 19:02:00,51.6,35.9,30.03,ENE,71,2.3,2.3,55,0.00,BKN,,0.00,42.0,WeatherDisplay:10.37,2013-05-14 00:02:00,
2013-05-13 19:07:00,51.3,36.1,30.03,ENE,72,3.5,3.5,56,0.00,BKN,,0.00,35.0,WeatherDisplay:10.37,2013-05-14 00:07:00,
2013-05-13 19:12:00,50.8,35.7,30.03,ENE,72,1.1,1.1,56,0.00,BKN,,0.00,32.0,WeatherDisplay:10.37,2013-05-14 00:12:00,
2013-05-13 19:17:00,50.5,35.8,30.03,ENE,72,3.5,3.5,57,0.00,BKN,,0.00,28.0,WeatherDisplay:10.37,2013-05-14 00:17:00,
2013-05-13 19:22:00,50.1,35.4,30.03,East,79,3.5,3.5,57,0.00,BKN,,0.00,21.0,WeatherDisplay:10.37,2013-05-14 00:22:00,
2013-05-13 19:27:00,49.8,35.6,30.03,East,79,2.3,2.3,58,0.00,BKN,,0.00,16.0,WeatherDisplay:10.37,2013-05-14 00:27:00,
2013-05-13 19:32:00,49.6,35.4,30.03,East,79,1.1,1.1,58,0.00,BKN,,0.00,9.0,WeatherDisplay:10.37,2013-05-14 00:32:00,
2013-05-13 19:37:00,49.3,35.1,30.03,East,80,2.3,2.3,58,0.00,BKN,,0.00,5.0,WeatherDisplay:10.37,2013-05-14 00:37:00,
2013-05-13 19:42:00,48.9,34.8,30.03,East,82,2.3,2.3,58,0.00,BKN,,0.00,5.0,WeatherDisplay:10.37,2013-05-14 00:42:00,
2013-05-13 19:47:00,48.8,34.7,30.04,ENE,67,3.5,3.5,58,0.00,OVC,,0.00,0.0,WeatherDisplay:10.37,2013-05-14 00:47:00,
2013-05-13 19:52:00,48.6,34.5,30.04,ENE,67,1.1,1.1,58,0.00,BKN,,0.00,5.0,WeatherDisplay:10.37,2013-05-14 00:52:00,
2013-05-13 19:57:00,48.4,34.3,30.04,ENE,59,3.5,3.5,58,0.00,BKN,,0.00,5.0,WeatherDisplay:10.37,2013-05-14 00:57:00,
2013-05-13 20:02:00,48.2,34.5,30.04,ENE,61,2.3,2.3,59,0.00,OVC,,0.00,0.0,WeatherDisplay:10.37,2013-05-14 01:02:00,
2013-05-13 20:07:00,48.1,34.4,30.04,ENE,63,0.0,0.0,59,0.00,OVC,,0.00,0.0,WeatherDisplay:10.37,2013-05-14 01:07:00,
2013-05-13 20:12:00,48.0,34.3,30.04,ENE,63,1.1,1.1,59,0.00,OVC,,0.00,0.0,WeatherDisplay:10.37,2013-05-14 01:12:00,
2013-05-13 20:17:00,47.8,34.2,30.05,ENE,63,1.1,1.1,59,0.00,OVC,,0.00,0.0,WeatherDisplay:10.37,2013-05-14 01:17:00,
2013-05-13 20:22:00,47.7,34.5,30.05,ENE,63,1.1,1.1,60,0.00,OVC,,0.00,0.0,WeatherDisplay:10.37,2013-05-14 01:22:00,
2013-05-13 20:27:00,47.7,34.5,30.06,ENE,63,1.1,0.0,60,0.00,OVC,,0.00,0.0,WeatherDisplay:10.37,2013-05-14 01:27:00,
2013-05-13 20:32:00,47.6,34.4,30.05,East,86,1.1,0.0,60,0.00,OVC,,0.00,0.0,WeatherDisplay:10.37,2013-05-14 01:32:00,
2013-05-13 20:37:00,47.6,34.4,30.05,East,84,1.1,1.1,60,0.00,OVC,,0.00,0.0,WeatherDisplay:10.37,2013-05-14 01:37:00,
2013-05-13 20:42:00,47.5,34.3,30.06,East,85,1.0,1.0,60,0.00,CLR,,0.00,0.0,WeatherDisplay:10.37,2013-05-14 01:42:00,
2013-05-13 20:47:00,47.4,34.2,30.05,East,85,0.0,0.0,60,0.00,CLR,,0.00,0.0,WeatherDisplay:10.37,2013-05-14 01:47:00,
2013-05-13 20:52:00,47.4,34.6,30.05,East,85,0.0,0.0,61,0.00,CLR,,0.00,0.0,WeatherDisplay:10.37,2013-05-14 01:52:00,
2013-05-13 20:57:00,47.3,34.1,30.05,East,85,0.0,0.0,60,0.00,CLR,,0.00,0.0,WeatherDisplay:10.37,2013-05-14 01:57:00,
2013-05-13 21:02:00,47.3,34.1,30.05,East,84,0.0,0.0,60,0.00,CLR,,0.00,0.0,WeatherDisplay:10.37,2013-05-14 02:02:00,
2013-05-13 21:07:00,47.3,34.1,30.05,East,94,2.3,2.3,60,0.00,CLR,,0.00,0.0,WeatherDisplay:10.37,2013-05-14 02:07:00,
2013-05-13 21:12:00,47.3,34.1,30.04,East,94,1.0,0.0,60,0.00,CLR,,0.00,0.0,WeatherDisplay:10.37,2013-05-14 02:12:00,
2013-05-13 21:17:00,47.2,34.0,30.04,East,80,1.1,1.1,60,0.00,CLR,,0.00,0.0,WeatherDisplay:10.37,2013-05-14 02:17:00,
2013-05-13 21:22:00,47.2,34.4,30.04,East,80,1.1,1.1,61,0.00,CLR,,0.00,0.0,WeatherDisplay:10.37,2013-05-14 02:22:00,
2013-05-13 21:27:00,47.2,34.0,30.04,East,79,1.1,1.1,60,0.00,CLR,,0.00,0.0,WeatherDisplay:10.37,2013-05-14 02:27:00,
2013-05-13 21:32:00,47.2,34.4,30.04,East,86,0.0,0.1,61,0.00,CLR,,0.00,0.0,WeatherDisplay:10.37,2013-05-14 02:32:00,
2013-05-13 21:37:00,47.2,34.0,30.04,East,84,0.0,0.0,60,0.00,CLR,,0.00,0.0,WeatherDisplay:10.37,2013-05-14 02:37:00,
2013-05-13 21:42:00,47.2,34.4,30.04,East,85,1.0,0.0,61,0.00,CLR,,0.00,0.0,WeatherDisplay:10.37,2013-05-14 02:42:00,
2013-05-13 21:47:00,47.3,34.5,30.04,East,85,1.1,1.1,61,0.00,CLR,,0.00,0.0,WeatherDisplay:10.37,2013-05-14 02:47:00,
2013-05-13 21:52:00,47.3,34.5,30.04,East,85,1.1,0.0,61,0.00,CLR,,0.00,0.0,WeatherDisplay:10.37,2013-05-14 02:52:00,
2013-05-13 21:57:00,47.2,34.4,30.04,ENE,60,3.5,3.5,61,0.00,CLR,,0.00,0.0,WeatherDisplay:10.37,2013-05-14 02:57:00,
2013-05-13 22:02:00,47.2,34.4,30.03,ENE,60,1.1,1.1,61,0.00,CLR,,0.00,0.0,WeatherDisplay:10.37,2013-05-14 03:02:00,
2013-05-13 22:07:00,47.3,34.5,30.03,ENE,57,3.5,3.5,61,0.00,CLR,,0.00,0.0,WeatherDisplay:10.37,2013-05-14 03:07:00,
2013-05-13 22:12:00,47.3,34.5,30.03,East,82,2.0,2.0,61,0.00,CLR,,0.00,0.0,WeatherDisplay:10.37,2013-05-14 03:12:00,
2013-05-13 22:17:00,47.3,34.5,30.02,East,83,0.0,0.1,61,0.00,CLR,,0.00,0.0,WeatherDisplay:10.37,2013-05-14 03:17:00,
2013-05-13 22:22:00,47.2,34.4,30.02,East,92,3.5,3.5,61,0.00,CLR,,0.00,0.0,WeatherDisplay:10.37,2013-05-14 03:22:00,
2013-05-13 22:27:00,47.2,34.4,30.02,East,88,1.1,0.0,61,0.00,CLR,,0.00,0.0,WeatherDisplay:10.37,2013-05-14 03:27:00,
2013-05-13 22:32:00,47.1,34.7,30.01,East,88,2.3,2.3,62,0.00,CLR,,0.00,0.0,WeatherDisplay:10.37,2013-05-14 03:32:00,
2013-05-13 22:37:00,47.1,34.7,30.01,East,88,0.0,0.0,62,0.00,CLR,,0.00,0.0,WeatherDisplay:10.37,2013-05-14 03:37:00,
2013-05-13 22:42:00,47.1,34.7,30.00,East,88,1.1,1.1,62,0.00,CLR,,0.00,0.0,WeatherDisplay:10.37,2013-05-14 03:42:00,
2013-05-13 22:47:00,47.1,34.7,29.99,East,79,1.1,0.0,62,0.00,CLR,,0.00,0.0,WeatherDisplay:10.37,2013-05-14 03:47:00,
2013-05-13 22:52:00,47.1,34.7,30.00,East,79,0.0,0.0,62,0.00,CLR,,0.00,0.0,WeatherDisplay:10.37,2013-05-14 03:52:00,
2013-05-13 22:57:00,47.1,34.3,29.99,ENE,64,1.1,0.0,61,0.00,CLR,,0.00,0.0,WeatherDisplay:10.37,2013-05-14 03:57:00,
2013-05-13 23:01:00,47.2,34.8,29.99,ENE,76,2.3,2.3,62,0.00,CLR,,0.00,0.0,WeatherDisplay:10.37,2013-05-14 04:01:00,
2013-05-13 23:06:00,47.4,34.6,29.99,ENE,77,1.1,0.0,61,0.00,CLR,,0.00,0.0,WeatherDisplay:10.37,2013-05-14 04:06:00,
2013-05-13 23:11:00,47.6,34.8,29.99,ENE,77,1.1,0.0,61,0.00,CLR,,0.00,0.0,WeatherDisplay:10.37,2013-05-14 04:11:00,
2013-05-13 23:16:00,47.8,34.6,29.98,NE,55,1.1,1.1,60,0.00,CLR,,0.00,0.0,WeatherDisplay:10.37,2013-05-14 04:16:00,
2013-05-13 23:21:00,47.9,34.7,29.98,ESE,102,1.1,1.1,60,0.00,CLR,,0.00,0.0,WeatherDisplay:10.37,2013-05-14 04:21:00,
2013-05-13 23:26:00,47.9,34.7,29.97,East,100,1.1,0.0,60,0.00,CLR,,0.00,0.0,WeatherDisplay:10.37,2013-05-14 04:26:00,
2013-05-13 23:31:00,48.0,34.8,29.97,East,90,0.0,0.0,60,0.00,CLR,,0.00,0.0,WeatherDisplay:10.37,2013-05-14 04:31:00,
2013-05-13 23:36:00,47.9,34.7,29.97,East,90,3.5,0.0,60,0.00,CLR,,0.00,0.0,WeatherDisplay:10.37,2013-05-14 04:36:00,
2013-05-13 23:41:00,47.8,34.6,29.97,East,90,1.1,1.1,60,0.00,CLR,,0.00,0.0,WeatherDisplay:10.37,2013-05-14 04:41:00,
2013-05-13 23:46:00,47.8,34.6,29.97,East,94,2.3,2.3,60,0.00,CLR,,0.00,0.0,WeatherDisplay:10.37,2013-05-14 04:46:00,
2013-05-13 23:51:00,47.8,35.0,29.97,East,94,0.0,0.0,61,0.00,CLR,,0.00,0.0,WeatherDisplay:10.37,2013-05-14 04:51:00,
2013-05-13 23:56:00,47.7,34.5,29.96,East,94,0.0,0.0,60,0.00,CLR,,0.00,0.0,WeatherDisplay:10.37,2013-05-14 04:56:00,